DW9064 Weather Reports


Display with metric or nautical units.
time (UTC)temp
F
wind
direction
speed
MPH
gust
MPH
rain 1hr
in
rain 24hr
in
rain mn
in
humidity
%
barometer
mb
20200713172043 66 259 4.0 6.0 0.00 0.00 0.00 36 1024.6
20200713171143 66 274 1.0 6.0 0.00 0.00 0.00 37 1024.8
20200713170243 66 235 3.0 7.0 0.00 0.00 0.00 38 1024.8
20200713165343 65 217 2.0 6.0 0.00 0.00 0.00 43 1024.9
20200713164443 64 227 2.0 6.0 0.00 0.00 0.00 46 1024.9
20200713163543 63 231 1.0 7.0 0.00 0.00 0.00 46 1025.1
20200713162643 62 225 3.0 6.0 0.00 0.00 0.00 48 1025.2
20200713161743 61 222 2.0 7.0 0.00 0.00 0.00 51 1025.2
20200713160843 61 208 4.0 7.0 0.00 0.00 0.00 52 1025.3
20200713155943 61 204 4.0 7.0 0.00 0.00 0.00 53 1025.3
20200713155043 61 189 2.0 5.0 0.00 0.00 0.00 56 1025.5
20200713154143 59 192 1.0 6.0 0.00 0.00 0.00 59 1025.4
20200713153243 59 183 3.0 7.0 0.00 0.00 0.00 60 1025.5
20200713152345 58 218 2.0 7.0 0.00 0.00 0.00 60 1025.7
20200713151443 58 168 3.0 6.0 0.00 0.00 0.00 60 1025.6
20200713150543 57 176 2.0 5.0 0.00 0.00 0.00 64 1025.7
20200713145645 56 191 3.0 5.0 0.00 0.00 0.00 65 1025.8
20200713144743 54 195 2.0 5.0 0.00 0.00 0.00 67 1025.7
20200713143843 54 161 3.0 6.0 0.00 0.00 0.00 68 1025.8
20200713142945 53 186 2.0 4.0 0.00 0.00 0.00 71 1025.9
20200713142043 53 175 2.0 4.0 0.00 0.00 0.00 74 1025.8
20200713141143 52 210 1.0 2.0 0.00 0.00 0.00 77 1025.8
20200713140243 51 172 0.0 4.0 0.00 0.00 0.00 80 1025.8
20200713135343 49 95 0.0 4.0 0.00 0.00 0.00 84 1025.7
20200713134444 47 56 1.0 4.0 0.00 0.00 0.00 86 1025.7
20200713133543 45 56 2.0 4.0 0.00 0.00 0.00 87 1025.9
20200713132643 44 65 3.0 4.0 0.00 0.00 0.00 88 1025.8
20200713131745 43 67 3.0 4.0 0.00 0.00 0.00 90 1025.8
20200713130843 42 79 3.0 5.0 0.00 0.00 0.00 90 1025.7
20200713125943 42 58 3.0 6.0 0.00 0.00 0.00 90 1025.7
20200713125043 42 58 4.0 6.0 0.00 0.00 0.00 90 1025.6
20200713124143 42 62 2.0 6.0 0.00 0.00 0.00 90 1025.7
20200713123245 41 48 3.0 6.0 0.00 0.00 0.00 90 1025.6
20200713122343 42 51 4.0 6.0 0.00 0.00 0.00 89 1025.5
20200713121443 42 48 4.0 7.0 0.00 0.00 0.00 89 1025.5
20200713120543 42 51 4.0 6.0 0.00 0.00 0.00 89 1025.5
20200713115644 42 68 3.0 7.0 0.00 0.00 0.00 89 1025.5
20200713114743 42 48 5.0 7.0 0.00 0.00 0.00 89 1025.3
20200713113843 42 45 5.0 7.0 0.00 0.00 0.00 89 1025.1
20200713112943 43 54 4.0 6.0 0.00 0.00 0.00 87 1025.1
20200713112043 43 59 3.0 7.0 0.00 0.00 0.00 86 1025.1
20200713111143 43 51 5.0 8.0 0.00 0.00 0.00 87 1024.9
20200713110243 44 47 5.0 8.0 0.00 0.00 0.00 86 1024.8
20200713105343 44 52 6.0 8.0 0.00 0.00 0.00 86 1024.8
20200713104443 44 45 3.0 7.0 0.00 0.00 0.00 86 1024.6
20200713103543 44 45 5.0 6.0 0.00 0.00 0.00 86 1024.3
20200713102645 45 47 5.0 7.0 0.00 0.00 0.00 85 1024.2
20200713101743 46 50 6.0 7.0 0.00 0.00 0.00 81 1024.2
20200713100843 47 67 4.0 6.0 0.00 0.00 0.00 80 1024.3
20200713095943 47 73 4.0 6.0 0.00 0.00 0.00 80 1024.3
20200713095043 48 66 4.0 6.0 0.00 0.00 0.00 78 1024.1
20200713094144 49 51 3.0 6.0 0.00 0.00 0.00 77 1024.1
20200713093243 49 110 2.0 6.0 0.00 0.00 0.00 76 1024.0
20200713092343 49 83 1.0 6.0 0.00 0.00 0.00 76 1023.9
20200713091443 49 35 1.0 9.0 0.00 0.00 0.00 77 1023.5
20200713090543 48 42 5.0 10.0 0.00 0.00 0.00 79 1023.6
20200713085643 47 43 4.0 8.0 0.00 0.00 0.00 81 1023.7
20200713084743 47 56 4.0 8.0 0.00 0.00 0.00 81 1023.7
20200713083843 48 60 6.0 9.0 0.00 0.00 0.00 81 1023.6
20200713082945 48 48 8.0 9.0 0.00 0.00 0.00 80 1023.5
20200713082045 49 58 7.0 9.0 0.00 0.00 0.00 79 1023.4
20200713081143 49 73 2.0 7.0 0.00 0.00 0.00 77 1023.4
20200713080245 49 51 4.0 8.0 0.00 0.00 0.00 78 1023.2
20200713075343 49 38 5.0 8.0 0.00 0.00 0.00 77 1023.3
20200713074443 48 44 2.0 8.0 0.00 0.00 0.00 79 1023.3
20200713073546 49 51 4.0 8.0 0.00 0.00 0.00 78 1023.4
20200713072643 49 43 2.0 8.0 0.00 0.00 0.00 77 1023.4
20200713071745 50 68 3.0 8.0 0.00 0.00 0.00 75 1023.3
20200713070845 49 65 5.0 8.0 0.00 0.00 0.00 75 1023.2
20200713065945 49 49 7.0 10.0 0.00 0.00 0.00 78 1023.0
20200713065043 50 51 5.0 9.0 0.00 0.00 0.00 77 1023.0
20200713064143 50 45 4.0 8.0 0.00 0.00 0.00 76 1022.9
20200713063243 51 54 7.0 10.0 0.00 0.00 0.00 75 1023.1
20200713062343 50 46 8.0 9.0 0.00 0.00 0.00 76 1023.0
20200713061443 51 47 5.0 9.0 0.00 0.00 0.00 76 1022.9
20200713060544 51 51 7.0 9.0 0.00 0.00 0.00 75 1022.7
20200713055643 52 51 5.0 8.0 0.00 0.00 0.00 75 1022.6
20200713054743 52 50 5.0 9.0 0.00 0.00 0.00 73 1022.7
20200713053843 53 46 6.0 9.0 0.00 0.00 0.00 73 1022.3
20200713052943 54 49 6.0 9.0 0.00 0.00 0.00 71 1022.4
20200713052043 55 50 7.0 10.0 0.00 0.00 0.00 69 1022.3
20200713051143 55 54 6.0 8.0 0.00 0.00 0.00 70 1022.3
20200713050245 56 45 6.0 8.0 0.00 0.00 0.00 68 1022.2
20200713045343 58 53 4.0 6.0 0.00 0.00 0.00 64 1022.0
20200713044443 58 54 4.0 6.0 0.00 0.00 0.00 60 1021.8
20200713043543 60 46 2.0 5.0 0.00 0.00 0.00 55 1021.8
20200713042643 62 35 2.0 6.0 0.00 0.00 0.00 48 1021.6
20200713041743 64 103 2.0 7.0 0.00 0.00 0.00 42 1021.3
20200713040843 65 114 0.0 4.0 0.00 0.00 0.00 40 1021.1
20200713035943 66 95 2.0 11.0 0.00 0.00 0.00 36 1021.0
20200713035044 67 59 4.0 13.0 0.00 0.00 0.00 34 1020.6
20200713034143 67 96 2.0 16.0 0.00 0.00 0.00 35 1020.5
20200713033243 67 93 7.0 16.0 0.00 0.00 0.00 37 1020.1
20200713032343 66 78 2.0 10.0 0.00 0.00 0.00 48 1019.8
20200713031443 66 28 4.0 8.0 0.00 0.00 0.00 57 1019.4
20200713030543 66 352 4.0 8.0 0.00 0.00 0.00 45 1019.1
20200713025643 64 44 2.0 6.0 0.00 0.00 0.00 57 1018.9
20200713024744 64 53 2.0 7.0 0.00 0.00 0.00 61 1018.6
20200713023843 65 57 3.0 7.0 0.00 0.00 0.00 56 1018.6
20200713022944 66 64 4.0 8.0 0.00 0.00 0.00 53 1018.4
20200713022044 69 90 2.0 6.0 0.00 0.00 0.00 44 1018.4
20200713021143 70 33 3.0 8.0 0.00 0.00 0.00 28 1018.3
20200713020243 69 343 2.0 13.0 0.00 0.00 0.00 34 1018.3
20200713015343 68 118 2.0 4.0 0.00 0.00 0.00 45 1018.1
20200713014445 69 83 2.0 7.0 0.00 0.00 0.00 39 1018.0
20200713013543 71 237 2.0 6.0 0.00 0.00 0.00 36 1018.0
20200713012644 71 46 2.0 7.0 0.00 0.00 0.00 37 1017.8
20200713011743 70 111 2.0 8.0 0.00 0.00 0.00 38 1017.7
20200713010844 69 79 3.0 6.0 0.00 0.00 0.00 62 1017.8
20200713005943 70 58 2.0 11.0 0.00 0.00 0.00 57 1017.6
20200713005043 70 38 4.0 11.0 0.00 0.00 0.00 42 1017.6
20200713004145 69 51 3.0 6.0 0.00 0.00 0.00 64 1017.5
20200713003245 70 48 4.0 8.0 0.00 0.00 0.00 61 1017.5
20200713002345 72 41 2.0 9.0 0.00 0.00 0.00 34 1017.5
20200713001443 72 47 3.0 6.0 0.00 0.00 0.00 48 1017.5
20200713000545 74 36 4.0 11.0 0.00 0.00 0.00 39 1017.6
20200712235643 76 294 2.0 8.0 0.00 0.00 0.00 21 1017.5
20200712234743 76 20 1.0 4.0 0.00 0.00 0.00 40 1017.6
20200712233844 76 270 3.0 11.0 0.00 0.00 0.00 20 1017.6
20200712232944 78 294 6.0 11.0 0.00 0.00 0.00 20 1017.7
20200712232044 75 279 4.0 12.0 0.00 0.00 0.00 20 1017.9
20200712231143 75 267 8.0 15.0 0.00 0.00 0.00 20 1017.9
20200712230244 76 278 8.0 15.0 0.00 0.00 0.00 19 1017.9
20200712225344 76 298 4.0 16.0 0.00 0.00 0.00 18 1018.0
20200712224443 76 294 6.0 15.0 0.00 0.00 0.00 16 1018.0
20200712223544 76 295 4.0 17.0 0.00 0.00 0.00 17 1018.1
20200712222644 76 288 8.0 16.0 0.00 0.00 0.00 17 1018.3
20200712221743 76 323 4.0 21.0 0.00 0.00 0.00 18 1018.3
20200712220844 78 308 9.0 20.0 0.00 0.00 0.00 16 1018.5
20200712215943 80 298 8.0 21.0 0.00 0.00 0.00 17 1018.4
20200712215044 78 276 7.0 15.0 0.00 0.00 0.00 19 1018.6
20200712214144 78 288 8.0 15.0 0.00 0.00 0.00 19 1018.6
20200712213244 76 296 4.0 15.0 0.00 0.00 0.00 20 1018.7
20200712212344 76 278 6.0 12.0 0.00 0.00 0.00 22 1018.9
20200712211444 76 299 7.0 25.0 0.00 0.00 0.00 20 1019.1
20200712210544 77 290 4.0 15.0 0.00 0.00 0.00 24 1019.0
20200712205644 76 284 5.0 17.0 0.00 0.00 0.00 24 1019.2
20200712204744 76 296 10.0 18.0 0.00 0.00 0.00 24 1019.3
20200712203843 78 292 4.0 15.0 0.00 0.00 0.00 21 1019.5
20200712202944 78 301 10.0 17.0 0.00 0.00 0.00 24 1019.6
20200712202044 78 314 3.0 16.0 0.00 0.00 0.00 24 1019.8
20200712201144 78 316 7.0 15.0 0.00 0.00 0.00 21 1020.0
20200712200243 79 294 10.0 15.0 0.00 0.00 0.00 21 1020.1
20200712195344 78 304 8.0 14.0 0.00 0.00 0.00 23 1020.2
20200712194444 77 279 4.0 17.0 0.00 0.00 0.00 22 1020.4
20200712193544 77 275 11.0 16.0 0.00 0.00 0.00 19 1020.4
20200712192643 78 277 7.0 14.0 0.00 0.00 0.00 26 1020.5
20200712191745 77 265 10.0 17.0 0.00 0.00 0.00 21 1020.5
20200712190845 76 280 11.0 18.0 0.00 0.00 0.00 21 1020.6
20200712185944 77 292 4.0 12.0 0.00 0.00 0.00 22 1020.6
20200712185044 76 270 8.0 13.0 0.00 0.00 0.00 22 1020.8
20200712184144 77 283 9.0 14.0 0.00 0.00 0.00 23 1020.8
20200712183243 76 289 8.0 13.0 0.00 0.00 0.00 21 1020.9
20200712182344 76 282 6.0 13.0 0.00 0.00 0.00 21 1021.1
20200712181444 76 274 3.0 12.0 0.00 0.00 0.00 24 1021.1
20200712180544 76 292 6.0 13.0 0.00 0.00 0.00 27 1021.1
20200712175644 74 286 4.0 14.0 0.00 0.00 0.00 26 1021.1
20200712174744 74 268 7.0 14.0 0.00 0.00 0.00 26 1021.0
20200712173844 74 270 7.0 14.0 0.00 0.00 0.00 29 1021.1
20200712172944 73 275 8.0 13.0 0.00 0.00 0.00 32 1021.1